• In Netherlands
  • List of Countries
  • For 7 days
  • Water Temperature
  • Satellite Maps
  • Weather Map
  • Weather Widgets
  • user-avatar
    Login

    Hourly Weather Brussels

    Today, 18 January, Wednesday

    Time Temperature Precipitation Wind Pressure Humidity
    00:00 -5°C° 0 mm 2 mps 775 mmHg 85%
    01:00 -5°C° 0 mm 2 mps 775 mmHg 86%
    02:00 -5°C° 0 mm 2 mps 775 mmHg 86%
    03:00 -5°C° 0 mm 2 mps 775 mmHg 86%
    04:00 -5°C° 0 mm 2 mps 775 mmHg 86%
    05:00 -5°C° 0 mm 2 mps 775 mmHg 85%
    06:00 -6°C° 0 mm 2 mps 775 mmHg 85%
    07:00 -5°C° 0 mm 2 mps 776 mmHg 82%
    08:00 -5°C° 0 mm 2 mps 776 mmHg 79%
    09:00 -4°C° 0 mm 2 mps 776 mmHg 76%
    10:00 -3°C° 0 mm 2 mps 776 mmHg 71%
    11:00 -2°C° 0 mm 3 mps 776 mmHg 65%
    12:00 -1°C° 0 mm 3 mps 776 mmHg 60%
    13:00 -1°C° 0 mm 3 mps 776 mmHg 61%
    14:00 -1°C° 0 mm 3 mps 775 mmHg 61%
    15:00 -1°C° 0 mm 3 mps 775 mmHg 62%
    16:00 -2°C° 0 mm 3 mps 775 mmHg 65%
    17:00 -3°C° 0 mm 2 mps 775 mmHg 69%
    18:00 -4°C° 0 mm 2 mps 775 mmHg 73%
    19:00 -4°C° 0 mm 2 mps 775 mmHg 73%
    20:00 -4°C° 0 mm 2 mps 775 mmHg 73%
    21:00 -5°C° 0 mm 2 mps 775 mmHg 73%
    22:00 -5°C° 0 mm 2 mps 775 mmHg 73%
    23:00 -5°C° 0 mm 2 mps 775 mmHg 73%

    Tomorrow, 19 January, Thursday

    Time Temperature Precipitation Wind Pressure Humidity
    00:00 -5°C° 0 mm 2 mps 775 mmHg 73%
    01:00 -5°C° 0 mm 2 mps 775 mmHg 72%
    02:00 -5°C° 0 mm 2 mps 775 mmHg 72%
    03:00 -5°C° 0 mm 2 mps 775 mmHg 71%
    04:00 -5°C° 0 mm 2 mps 775 mmHg 70%
    05:00 -5°C° 0 mm 2 mps 775 mmHg 70%
    06:00 -5°C° 0 mm 2 mps 775 mmHg 69%
    07:00 -4°C° 0 mm 2 mps 775 mmHg 67%
    08:00 -4°C° 0 mm 2 mps 775 mmHg 64%
    09:00 -5°C° 0 mm 3 mps 775 mmHg 62%
    10:00 -2°C° 0 mm 3 mps 775 mmHg 57%
    11:00 -1°C° 0 mm 3 mps 774 mmHg 53%
    12:00 0°C° 0 mm 3 mps 774 mmHg 49%
    13:00 0°C° 0 mm 3 mps 774 mmHg 51%
    14:00 0°C° 0 mm 3 mps 774 mmHg 53%
    15:00 -1°C° 0 mm 2 mps 774 mmHg 55%
    16:00 -1°C° 0 mm 2 mps 774 mmHg 57%
    17:00 -2°C° 0 mm 3 mps 774 mmHg 59%
    18:00 -4°C° 0 mm 3 mps 774 mmHg 61%
    19:00 -3°C° 0 mm 2 mps 774 mmHg 61%
    20:00 -3°C° 0 mm 2 mps 774 mmHg 60%
    21:00 -3°C° 0 mm 2 mps 774 mmHg 60%
    22:00 -3°C° 0 mm 2 mps 773 mmHg 61%
    23:00 -3°C° 0 mm 2 mps 773 mmHg 62%

    Day after tomorrow, 20 January, Friday

    Time Temperature Precipitation Wind Pressure Humidity
    00:00 -3°C° 0 mm 2 mps 773 mmHg 63%
    01:00 -3°C° 0 mm 2 mps 773 mmHg 66%
    02:00 -3°C° 0 mm 2 mps 773 mmHg 69%
    03:00 -2°C° 0 mm 2 mps 772 mmHg 72%
    04:00 -2°C° 0 mm 2 mps 772 mmHg 77%
    05:00 -2°C° 0 mm 2 mps 772 mmHg 81%
    06:00 -2°C° 0 mm 2 mps 772 mmHg 86%
    07:00 -2°C° 0 mm 2 mps 772 mmHg 88%
    08:00 -1°C° 0 mm 2 mps 772 mmHg 89%
    09:00 -1°C° 0 mm 2 mps 772 mmHg 90%
    10:00 +1°C° 0 mm 2 mps 771 mmHg 89%
    11:00 +2°C° 0 mm 2 mps 771 mmHg 88%
    12:00 +3°C° 0 mm 2 mps 771 mmHg 87%
    13:00 +3°C° 0 mm 2 mps 771 mmHg 89%
    14:00 +2°C° 0 mm 2 mps 770 mmHg 91%
    15:00 +2°C° 0 mm 2 mps 770 mmHg 93%
    16:00 +1°C° 0 mm 2 mps 770 mmHg 95%
    17:00 -1°C° 0 mm 2 mps 770 mmHg 96%
    18:00 -2°C° 0 mm 3 mps 770 mmHg 97%
    19:00 -2°C° 0 mm 2 mps 770 mmHg 97%
    20:00 -2°C° 0 mm 2 mps 770 mmHg 96%
    21:00 -2°C° 0 mm 2 mps 770 mmHg 96%
    22:00 -2°C° 0 mm 2 mps 770 mmHg 95%
    23:00 -3°C° 0 mm 2 mps 770 mmHg 94%

    21 January, Saturday

    Time Temperature Precipitation Wind Pressure Humidity
    00:00 -3°C° 0 mm 2 mps 770 mmHg 93%
    01:00 -3°C° 0 mm 2 mps 770 mmHg 92%
    02:00 -3°C° 0 mm 2 mps 770 mmHg 90%
    03:00 -3°C° 0 mm 2 mps 769 mmHg 89%
    04:00 -3°C° 0 mm 2 mps 769 mmHg 88%
    05:00 -4°C° 0 mm 2 mps 769 mmHg 86%
    06:00 -4°C° 0 mm 2 mps 769 mmHg 85%
    07:00 -4°C° 0 mm 2 mps 769 mmHg 82%
    08:00 -3°C° 0 mm 2 mps 769 mmHg 78%
    09:00 -3°C° 0 mm 2 mps 769 mmHg 74%
    10:00 -2°C° 0 mm 2 mps 769 mmHg 69%
    11:00 -1°C° 0 mm 2 mps 769 mmHg 63%
    12:00 0°C° 0 mm 3 mps 769 mmHg 57%
    13:00 +1°C° 0 mm 2 mps 768 mmHg 60%
    14:00 +1°C° 0 mm 2 mps 768 mmHg 63%
    15:00 +1°C° 0 mm 2 mps 768 mmHg 66%
    16:00 -1°C° 0 mm 2 mps 768 mmHg 70%
    17:00 -2°C° 0 mm 2 mps 768 mmHg 74%
    18:00 -4°C° 0 mm 2 mps 768 mmHg 77%
    19:00 -4°C° 0 mm 2 mps 768 mmHg 78%
    20:00 -4°C° 0 mm 2 mps 768 mmHg 78%
    21:00 -4°C° 0 mm 2 mps 768 mmHg 78%
    22:00 -4°C° 0 mm 2 mps 768 mmHg 77%
    23:00 -3°C° 0 mm 1 mps 768 mmHg 77%

    22 January, Sunday

    Time Temperature Precipitation Wind Pressure Humidity
    00:00 -3°C° 0 mm 1 mps 768 mmHg 77%
    01:00 -3°C° 0 mm 1 mps 767 mmHg 76%
    02:00 -3°C° 0 mm 1 mps 767 mmHg 76%
    03:00 -3°C° 0 mm 1 mps 767 mmHg 75%
    04:00 -3°C° 0 mm 1 mps 767 mmHg 75%
    05:00 -3°C° 0 mm 1 mps 767 mmHg 75%
    06:00 -3°C° 0 mm 1 mps 767 mmHg 74%
    07:00 -3°C° 0 mm 1 mps 767 mmHg 71%
    08:00 -2°C° 0 mm 1 mps 767 mmHg 69%
    09:00 -3°C° 0 mm 0 mps 767 mmHg 66%
    10:00 -1°C° 0 mm 0 mps 767 mmHg 62%
    11:00 0°C° 0 mm 0 mps 767 mmHg 58%
    12:00 +1°C° 0 mm 0 mps 766 mmHg 54%
    13:00 +1°C° 0 mm 0 mps 766 mmHg 57%
    14:00 0°C° 0 mm 0 mps 766 mmHg 60%
    15:00 +1°C° 0 mm 1 mps 766 mmHg 64%
    16:00 0°C° 0 mm 1 mps 766 mmHg 68%
    17:00 -1°C° 0 mm 1 mps 766 mmHg 72%
    18:00 -2°C° 0 mm 1 mps 766 mmHg 75%
    19:00 -2°C° 0 mm 1 mps 766 mmHg 77%
    20:00 -2°C° 0 mm 1 mps 766 mmHg 78%
    21:00 -2°C° 0 mm 1 mps 767 mmHg 80%
    22:00 -2°C° 0 mm 1 mps 767 mmHg 81%
    23:00 -2°C° 0 mm 1 mps 767 mmHg 83%

    23 January, Monday

    Time Temperature Precipitation Wind Pressure Humidity
    00:00 -2°C° 0 mm 1 mps 767 mmHg 85%
    01:00 -2°C° 0 mm 1 mps 767 mmHg 86%
    02:00 -2°C° 0 mm 1 mps 767 mmHg 88%
    03:00 -3°C° 0 mm 1 mps 767 mmHg 90%
    04:00 -3°C° 0 mm 1 mps 767 mmHg 91%
    05:00 -3°C° 0 mm 1 mps 767 mmHg 92%
    06:00 -3°C° 0 mm 1 mps 767 mmHg 92%
    07:00 -2°C° 0 mm 1 mps 768 mmHg 92%
    08:00 -1°C° 0 mm 1 mps 768 mmHg 92%
    09:00 0°C° 0 mm 1 mps 768 mmHg 92%
    10:00 +1°C° 0 mm 1 mps 768 mmHg 88%
    11:00 +2°C° 0 mm 2 mps 768 mmHg 84%
    12:00 +3°C° 0 mm 2 mps 768 mmHg 80%
    13:00 +2°C° 0 mm 2 mps 768 mmHg 82%
    14:00 +2°C° 0 mm 2 mps 768 mmHg 84%
    15:00 +2°C° 0 mm 2 mps 768 mmHg 86%
    16:00 +1°C° 0 mm 2 mps 769 mmHg 88%
    17:00 -1°C° 0 mm 2 mps 769 mmHg 90%
    18:00 0°C° 0 mm 1 mps 769 mmHg 92%
    19:00 0°C° 0 mm 1 mps 770 mmHg 92%
    20:00 0°C° 0 mm 1 mps 770 mmHg 93%
    21:00 0°C° 0 mm 1 mps 771 mmHg 93%
    22:00 -1°C° 0 mm 1 mps 771 mmHg 94%
    23:00 -1°C° 0 mm 1 mps 771 mmHg 94%
    Show more